Weather History for KVJI - January, 2013

Change the Weather History Date:

Wednesday, January 23, 2013

  Actual Average (KTRI) Record (KTRI)
Temperature  
Mean Temperature 28 °F 35 °F  
Max Temperature 37 °F 45 °F 74 °F (1938)
Min Temperature 19 °F 25 °F 1 °F (1963)
Degree Days  
Heating Degree Days 38 30  
Month to date heating degree days 690  
Since 1 July heating degree days 2419  
Cooling Degree Days 0 0  
Month to date cooling degree days 0  
Year to date cooling degree days 0  
Moisture  
Dew Point 12 °F    
Average Humidity 52    
Maximum Humidity 71    
Minimum Humidity 38    
Precipitation  
Precipitation 0.00 in 0.12 in 1.52 in (2002)
Month to date precipitation 2.49  
Year to date precipitation 2.49  
Snow  
Snow 0.00 in 0.10 in - ()
Month to date snowfall 3.5  
Since 1 July snowfall 6.2  
Snow Depth -    
Sea Level Pressure  
Sea Level Pressure 30.17 in    
Wind  
Wind Speed 7 mph (West)    
Max Wind Speed 15 mph    
Max Gust Speed 20 mph    
Visibility 10 miles    
Events      
T = Trace of Precipitation, MM = Missing Value Source: NWS Daily Summary

Daily Weather History Graph

Daily Weather History Graph

Search for Another Location

Airport or City:

Trip Planner

Search our weather history database for the weather conditions in past years. The results will help you decide how hot, cold, wet, or windy it might be!

Date:

Astronomy

Jan. 23, 2013 Rise Set
Actual Time 7:36 AM EST 5:44 PM EST
Civil Twilight 7:08 AM EST 6:12 PM EST
Nautical Twilight 6:36 AM EST 6:43 PM EST
Astronomical Twilight 6:06 AM EST 7:14 PM EST
Moon 2:55 PM EST (1/23) 4:45 AM EST (1/23)
Length of Visible Light 11h 03m
Length of Day
10h 08m
Waxing Gibbous, 89% of the Moon is Illuminated
Jan 23
Waxing Gibbous
Jan 26
Full
Feb 3
Last Quarter
Feb 10
New
Feb 17
First Quarter

Hourly Weather History & Observations

Time (EST) Temp. Windchill Dew Point Humidity Pressure Visibility Wind Dir Wind Speed Gust Speed Precip Events Conditions
12:15 AM 22.1 °F 14.7 °F 1.6 °F 41% 30.20 in 10.0 mi WNW 5.8 mph - N/A   Mostly Cloudy
12:35 AM 22.1 °F 14.7 °F 0.9 °F 40% 30.20 in 10.0 mi NW 5.8 mph - N/A   Mostly Cloudy
12:55 AM 22.1 °F 13.7 °F 0.3 °F 39% 30.20 in 10.0 mi WNW 6.9 mph - N/A   Scattered Clouds
1:15 AM 21.9 °F 12.5 °F -0.0 °F 38% 30.21 in 10.0 mi WNW 8.1 mph - N/A   Clear
1:35 AM 21.6 °F 12.1 °F 0.5 °F 40% 30.22 in 10.0 mi WNW 8.1 mph - N/A   Clear
1:55 AM 21.2 °F 10.9 °F 0.7 °F 41% 30.21 in 10.0 mi WNW 9.2 mph - N/A   Clear
2:15 AM 21.0 °F 13.4 °F 1.8 °F 43% 30.23 in 10.0 mi WNW 5.8 mph - N/A   Scattered Clouds
2:35 AM 21.6 °F 14.0 °F 2.5 °F 44% 30.24 in 10.0 mi West 5.8 mph - N/A   Overcast
2:55 AM 21.9 °F 13.4 °F 3.0 °F 44% 30.23 in 10.0 mi West 6.9 mph - N/A   Overcast
3:15 AM 21.7 °F 13.2 °F 2.8 °F 44% 30.23 in 10.0 mi WNW 6.9 mph - N/A   Overcast
3:35 AM 21.6 °F 14.0 °F 2.5 °F 44% 30.24 in 10.0 mi WNW 5.8 mph - N/A   Overcast
4:15 AM 21.2 °F 12.6 °F 1.6 °F 43% 30.24 in 10.0 mi West 6.9 mph - N/A   Overcast
4:35 AM 21.0 °F 13.4 °F 2.3 °F 44% 30.23 in 10.0 mi West 5.8 mph - N/A   Overcast
4:55 AM 20.1 °F 11.3 °F 3.2 °F 48% 30.23 in 10.0 mi West 6.9 mph - N/A   Mostly Cloudy
5:15 AM 20.3 °F 12.5 °F 2.7 °F 47% 30.23 in 10.0 mi WNW 5.8 mph - N/A   Scattered Clouds
5:35 AM 20.3 °F 11.5 °F 2.8 °F 47% 30.23 in 10.0 mi West 6.9 mph - N/A   Clear
5:55 AM 20.3 °F 12.5 °F 2.8 °F 47% 30.23 in 10.0 mi WNW 5.8 mph - N/A   Clear
6:15 AM 20.1 °F 13.6 °F 3.4 °F 48% 30.23 in 10.0 mi West 4.6 mph - N/A   Clear
6:35 AM 19.6 °F 14.5 °F 3.9 °F 51% 30.24 in 10.0 mi WNW 3.5 mph - N/A   Scattered Clouds
6:55 AM 19.4 °F 14.3 °F 4.3 °F 52% 30.24 in 10.0 mi West 3.5 mph - N/A   Mostly Cloudy
7:15 AM 19.8 °F - 4.5 °F 52% 30.24 in 10.0 mi Calm Calm - N/A   Overcast
7:35 AM 20.1 °F 13.6 °F 5.9 °F 54% 30.24 in 10.0 mi West 4.6 mph - N/A   Overcast
7:55 AM 21.0 °F 16.2 °F 6.4 °F 53% 30.25 in 10.0 mi WNW 3.5 mph - N/A   Overcast
8:15 AM 21.7 °F 13.2 °F 6.1 °F 51% 30.25 in 10.0 mi WNW 6.9 mph - N/A   Overcast
8:35 AM 22.3 °F 14.9 °F 6.4 °F 51% 30.25 in 10.0 mi WNW 5.8 mph - N/A   Overcast
8:55 AM 23.0 °F 15.8 °F 6.1 °F 48% 30.25 in 10.0 mi WNW 5.8 mph - N/A   Overcast
9:15 AM 23.5 °F 16.4 °F 6.1 °F 47% 30.25 in 10.0 mi West 5.8 mph - N/A   Overcast
9:35 AM 23.9 °F 13.5 °F 5.4 °F 45% 30.26 in 10.0 mi West 10.4 mph - N/A   Overcast
9:55 AM 24.4 °F 14.2 °F 5.9 °F 45% 30.27 in 10.0 mi West 10.4 mph - N/A   Overcast
10:15 AM 25.2 °F 14.4 °F 6.6 °F 45% 30.27 in 10.0 mi West 11.5 mph 16.1 mph N/A   Overcast
10:35 AM 25.7 °F 15.1 °F 6.8 °F 45% 30.27 in 10.0 mi WNW 11.5 mph - N/A   Overcast
10:55 AM 26.6 °F 17.5 °F 8.6 °F 47% 30.27 in 10.0 mi West 9.2 mph - N/A   Overcast
11:15 AM 27.5 °F 16.3 °F 9.5 °F 47% 30.27 in 10.0 mi WNW 13.8 mph 17.3 mph N/A   Overcast
11:35 AM 28.2 °F 18.9 °F 10.4 °F 47% 30.26 in 10.0 mi West 10.4 mph - N/A   Overcast
11:55 AM 30.2 °F 20.2 °F 11.7 °F 46% 30.25 in 10.0 mi West 12.7 mph 16.1 mph N/A   Overcast
12:15 PM 31.1 °F 21.9 °F 12.4 °F 46% 30.23 in 10.0 mi West 11.5 mph - N/A   Overcast
12:35 PM 31.8 °F 23.3 °F 12.7 °F 45% 30.22 in 10.0 mi West 10.4 mph 17.3 mph N/A   Overcast
12:55 PM 32.7 °F 24.5 °F 13.8 °F 46% 30.20 in 10.0 mi WNW 10.4 mph - N/A   Overcast
1:15 PM 34.3 °F 25.9 °F 14.9 °F 45% 30.18 in 10.0 mi WSW 11.5 mph 17.3 mph N/A   Overcast
1:35 PM 34.5 °F 25.7 °F 15.6 °F 46% 30.18 in 10.0 mi West 12.7 mph 18.4 mph N/A   Overcast
2:15 PM 35.8 °F 27.8 °F 16.9 °F 46% 30.16 in 10.0 mi West 11.5 mph 16.1 mph N/A   Mostly Cloudy
2:35 PM 35.8 °F 26.5 °F 16.7 °F 46% 30.14 in 10.0 mi West 15.0 mph 18.4 mph N/A   Scattered Clouds
2:55 PM 35.8 °F 28.3 °F 16.9 °F 46% 30.14 in 10.0 mi West 10.4 mph 18.4 mph N/A   Clear
3:15 PM 35.4 °F 26.8 °F 17.4 °F 48% 30.13 in 10.0 mi West 12.7 mph - N/A   Mostly Cloudy
3:35 PM 36.5 °F 27.8 °F 18.7 °F 49% 30.13 in 10.0 mi West 13.8 mph 18.4 mph N/A   Overcast
3:55 PM 36.1 °F 27.3 °F 18.5 °F 49% 30.13 in 10.0 mi West 13.8 mph - N/A   Overcast
4:15 PM 35.8 °F 26.9 °F 19.2 °F 51% 30.13 in 10.0 mi West 13.8 mph 19.6 mph N/A   Overcast
4:35 PM 36.5 °F 29.7 °F 21.0 °F 54% 30.12 in 10.0 mi WNW 9.2 mph 18.4 mph N/A   Overcast
4:55 PM 36.7 °F 29.9 °F 21.0 °F 53% 30.11 in 10.0 mi West 9.2 mph - N/A   Scattered Clouds
5:15 PM 36.3 °F 28.9 °F 20.7 °F 53% 30.11 in 10.0 mi WNW 10.4 mph - N/A   Scattered Clouds
5:35 PM 35.2 °F 29.5 °F 21.0 °F 56% 30.10 in 10.0 mi West 6.9 mph - N/A   Clear
5:55 PM 34.0 °F 29.8 °F 21.0 °F 59% 30.10 in 10.0 mi West 4.6 mph - N/A   Clear
6:15 PM 33.4 °F 30.4 °F 21.0 °F 60% 30.09 in 10.0 mi WNW 3.5 mph - N/A   Clear
6:35 PM 32.9 °F 29.8 °F 21.2 °F 62% 30.09 in 10.0 mi WNW 3.5 mph - N/A   Clear
6:55 PM 32.9 °F 29.8 °F 21.0 °F 62% 30.09 in 10.0 mi West 3.5 mph - N/A   Clear
7:15 PM 32.4 °F 29.1 °F 21.2 °F 63% 30.09 in 10.0 mi WNW 3.5 mph - N/A   Clear
7:35 PM 32.0 °F 28.7 °F 21.6 °F 65% 30.09 in 10.0 mi West 3.5 mph - N/A   Clear
7:55 PM 30.9 °F 26.2 °F 21.9 °F 69% 30.08 in 10.0 mi West 4.6 mph - N/A   Clear
8:15 PM 31.3 °F 26.6 °F 22.1 °F 69% 30.07 in 10.0 mi WSW 4.6 mph - N/A   Clear
8:35 PM 32.0 °F - 21.7 °F 66% 30.07 in 10.0 mi Calm Calm - N/A   Clear
9:15 PM 32.0 °F 28.7 °F 21.9 °F 66% 30.06 in 10.0 mi West 3.5 mph - N/A   Scattered Clouds
9:35 PM 31.6 °F 27.0 °F 22.1 °F 68% 30.06 in 10.0 mi West 4.6 mph - N/A   Scattered Clouds
9:55 PM 31.3 °F 26.6 °F 22.1 °F 69% 30.05 in 10.0 mi West 4.6 mph - N/A   Clear
10:15 PM 30.6 °F 24.7 °F 22.1 °F 71% 30.05 in 10.0 mi West 5.8 mph - N/A   Clear
10:35 PM 31.1 °F 25.4 °F 22.6 °F 71% 30.04 in 10.0 mi West 5.8 mph - N/A   Scattered Clouds
10:55 PM 31.8 °F 26.2 °F 23.0 °F 70% 30.04 in 10.0 mi West 5.8 mph - N/A   Mostly Cloudy
11:15 PM 32.0 °F 25.6 °F 23.4 °F 70% 30.04 in 10.0 mi West 6.9 mph - N/A   Overcast
11:35 PM 32.9 °F 26.7 °F 24.1 °F 70% 30.03 in 10.0 mi West 6.9 mph - N/A   Overcast
11:55 PM 32.9 °F 25.9 °F 24.4 °F 71% 30.03 in 10.0 mi West 8.1 mph - N/A   Overcast